Papa, Hungary

5:47 PM CEST on August 28, 2016 (GMT +0200)
Papa

Weather History for LHPA - June, 2013

Change the Weather History Date:

Friday, June 21, 2013

  Actual Average Record
Temperature  
Mean Temperature 80 °F -  
Max Temperature 87 °F - - ()
Min Temperature 73 °F - - ()
Cooling Degree Days 15    
Growing Degree Days 30 (Base 50)    
Moisture  
Dew Point 66 °F    
Average Humidity 61    
Maximum Humidity 78    
Minimum Humidity 46    
Precipitation  
Precipitation 0.00 in - - ()
Sea Level Pressure  
Sea Level Pressure 29.91 in    
Wind  
Wind Speed 7 mph ()    
Max Wind Speed 13 mph    
Max Gust Speed -    
Visibility 6.2 miles    
Events      
T = Trace of Precipitation, MM = Missing Value Source: Averaged Metar Reports

Daily Weather History Graph

Daily Weather History Graph

Search for Another Location

Airport or City:

Trip Planner

Search our weather history database for the weather conditions in past years. The results will help you decide how hot, cold, wet, or windy it might be!

Date:

Astronomy

Jun. 21, 2013 Rise Set
Actual Time 4:53 AM CEST 8:50 PM CEST
Civil Twilight 4:12 AM CEST 9:30 PM CEST
Nautical Twilight 3:17 AM CEST 10:26 PM CEST
Astronomical Twilight 1:50 AM CEST 11:53 PM CEST
Moon 6:35 PM CEST (6/21) 3:00 AM CEST (6/21)
Length of Visible Light 17h 17m
Length of Day
15h 57m
Waxing Gibbous, 94% of the Moon is Illuminated
Jun 21
Waxing Gibbous
Jun 23
Full
Jun 30
Last Quarter
Jul 8
New
Jul 16
First Quarter

Hourly Weather History & Observations

Time (CEST) Temp. Heat Index Dew Point Humidity Pressure Visibility Wind Dir Wind Speed Gust Speed Precip Events Conditions
12:15 AM 77.0 °F - 68.0 °F 74% 29.89 in - SSE 8.9 mph - N/A   Clear
12:45 AM 77.0 °F - 68.0 °F 74% 29.89 in - SSE 8.9 mph - N/A   Clear
1:15 AM 77.0 °F - 68.0 °F 74% 29.89 in - SSE 6.7 mph - N/A   Clear
1:45 AM 77.0 °F - 68.0 °F 74% 29.89 in - SSE 8.9 mph - N/A   Clear
2:15 AM 77.0 °F - 68.0 °F 74% 29.89 in - SSE 8.9 mph - N/A   Clear
2:45 AM 77.0 °F - 66.2 °F 69% 29.86 in - SSE 11.2 mph - N/A   Clear
3:15 AM 77.0 °F - 64.4 °F 65% 29.86 in - SSE 13.4 mph - N/A   Clear
3:45 AM - - - N/A% - - South 8.9 mph - N/A   Clear
4:15 AM 77.0 °F - 62.6 °F 61% 29.86 in - SSE 11.2 mph - N/A   Clear
4:45 AM 75.2 °F - 62.6 °F 65% 29.86 in - SSE 11.2 mph - N/A   Clear
5:15 AM 75.2 °F - 62.6 °F 65% 29.86 in - South 13.4 mph - N/A   Clear
5:45 AM 75.2 °F - 60.8 °F 61% 29.86 in - South 13.4 mph - N/A   Clear
6:15 AM 77.0 °F - 62.6 °F 61% 29.89 in - South 11.2 mph - N/A   Clear
6:45 AM - - - N/A% - - SSW 8.9 mph - N/A   Clear
7:15 AM 78.8 °F - 62.6 °F 57% 29.89 in - SSW 11.2 mph - N/A   Clear
7:45 AM 78.8 °F - 62.6 °F 57% 29.92 in - SSW 8.9 mph - N/A   Clear
8:15 AM 78.8 °F - 64.4 °F 61% 29.92 in - SW 8.9 mph - N/A   Clear
8:45 AM 80.6 °F 82.3 °F 64.4 °F 58% 29.95 in - WSW 6.7 mph - N/A   Clear
9:15 AM 80.6 °F 81.8 °F 62.6 °F 54% 29.95 in - West 4.5 mph - N/A   Clear
9:45 AM - - - N/A% - - Variable 4.5 mph - N/A   Clear
10:15 AM 82.4 °F 83.9 °F 64.4 °F 54% 29.95 in - NNW 6.7 mph - N/A   Clear
10:45 AM 82.4 °F 83.9 °F 64.4 °F 54% 29.95 in - North 6.7 mph - N/A   Clear
11:15 AM 82.4 °F 83.9 °F 64.4 °F 54% 29.95 in - NNW 6.7 mph - N/A   Clear
11:45 AM 84.2 °F 85.6 °F 64.4 °F 51% 29.95 in - NNE 4.5 mph - N/A   Clear
12:15 PM 84.2 °F 86.6 °F 66.2 °F 55% 29.95 in - NNE 6.7 mph - N/A   Clear
12:45 PM - - - N/A% - - Variable 4.5 mph - N/A   Clear
1:15 PM 84.2 °F 85.6 °F 64.4 °F 51% 29.95 in 6.2 mi NE 6.7 mph - N/A   Partly Cloudy
1:45 PM 86.0 °F 88.2 °F 66.2 °F 51% 29.95 in 6.2 mi NNE 4.5 mph - N/A   Partly Cloudy
2:15 PM 86.0 °F 87.3 °F 64.4 °F 48% 29.95 in 6.2 mi NNE 6.7 mph - N/A   Partly Cloudy
2:45 PM 86.0 °F 88.2 °F 66.2 °F 51% 29.92 in 6.2 mi NE 6.7 mph - N/A   Partly Cloudy
3:15 PM 87.8 °F 90.4 °F 66.2 °F 49% 29.92 in 6.2 mi NNE 4.5 mph - N/A   Partly Cloudy
3:45 PM - - - N/A% - - Variable 4.5 mph - N/A   Clear
4:15 PM 87.8 °F 91.4 °F 68.0 °F 52% 29.92 in 6.2 mi NNE 6.7 mph - N/A   Partly Cloudy
4:45 PM 87.8 °F 91.4 °F 68.0 °F 52% 29.89 in 6.2 mi NE 6.7 mph - N/A   Partly Cloudy
5:15 PM 87.8 °F 91.4 °F 68.0 °F 52% 29.89 in - NE 6.7 mph - N/A   Clear
5:45 PM 87.8 °F 92.6 °F 69.8 °F 55% 29.89 in - NE 8.9 mph - N/A   Clear
6:15 PM 87.8 °F 92.6 °F 69.8 °F 55% 29.89 in - ENE 6.7 mph - N/A   Clear
6:45 PM 87.8 °F 89.4 °F 64.4 °F 46% 29.89 in - ESE 4.5 mph - N/A   Clear
7:15 PM 87.8 °F 90.4 °F 66.2 °F 49% 29.89 in - South 4.5 mph - N/A   Clear
7:45 PM 84.2 °F 87.3 °F 68.0 °F 58% 29.89 in - South 4.5 mph - N/A   Clear
8:15 PM 82.4 °F 85.4 °F 68.0 °F 62% 29.89 in - SE 4.5 mph - N/A   Clear
8:45 PM 80.6 °F 83.2 °F 68.0 °F 65% 29.92 in - SSE 6.7 mph - N/A   Clear
9:15 PM 77.0 °F - 69.8 °F 78% 29.92 in - SSE 4.5 mph - N/A   Clear
9:45 PM 77.0 °F - 68.0 °F 74% 29.92 in - SSE 4.5 mph - N/A   Clear
10:15 PM 75.2 °F - 68.0 °F 78% 29.92 in - SSE 4.5 mph - N/A   Clear
10:45 PM 73.4 °F - 66.2 °F 78% 29.92 in - SSE 4.5 mph - N/A   Clear
11:15 PM 75.2 °F - 66.2 °F 73% 29.92 in - SSE 4.5 mph - N/A   Clear
11:45 PM 73.4 °F - 64.4 °F 73% 29.92 in - SSE 4.5 mph - N/A   Clear